Regional Weather Roundup
Issued by NWS

Home | Current Version | Previous Version | Graphics & Text | Print | Product List | Glossary On
Versions: 1 2 3 4 5 6 7 8 9 10 11 12 13 14 15 16 17 18 19 20 21 22 23 24 25 26 27 28 29 30 31 32 33 34 35 36 37 38 39 40 41 42 43 44 45 46 47 48 49 50
000
ASUS43 KIND 012309
RWRIN

WEATHER ROUNDUP FOR INDIANA
NATIONAL WEATHER SERVICE INDIANAPOLIS IN
700 PM EDT MON SEP 01 2014

NOTE: "FAIR" INDICATES FEW OR NO CLOUDS BELOW 12,000 FEET WITH NO
SIGNIFICANT WEATHER AND/OR OBSTRUCTIONS TO VISIBILITY.

* - STATION DOES NOT REPORT WEATHER SUCH AS PRECIPITATION OR FOG.

+ - STATION NOT QUALITY CONTROLLED BY THE NATIONAL WEATHER SERVICE.
    USE DATA WITH CAUTION...ESPECIALLY DEWPOINT AND RELATIVE
    HUMIDITY OBSERVATIONS.

INZ001>003-010>013-019-020-020000-
NORTHWEST INDIANA

CITY           SKY/WX    TMP DP  RH WIND       PRES   REMARKS
GARY /AIRPORT/ PTSUNNY   82  64  54 SW12G28   29.79S
KNOX *+        SUNNY     80  67  63 SW12G20   29.80S
LA PORTE +     SUNNY     79  64  60 SW10      29.81R
MICHIGAN CITY+ SUNNY     79  61  53 W9        29.80R
MONTICELLO +   MOSUNNY   80  66  63 W10G18    29.83R
RENSSELAER +   MOSUNNY   79  70  73 SW10      29.83R
VALPARAISO     SUNNY     80  65  59 W13       29.81R

$$

LMZ046-743>745-020000-
SOUTHERN LAKE MICHIGAN

STATION/POSITION TIME  TEMP WIND        PRES
                       AIR  DIR/SP/G
                 (UTC) (F)  (DEG/KT/KT) (MB)
MICHIGAN CITY    2300   78  220/ 18/ 20   N/A

$$

INZ004-005-014>016-021>024-020000-
NORTH CENTRAL INDIANA

CITY           SKY/WX    TMP DP  RH WIND       PRES   REMARKS
ELKHART        SUNNY     81  68  65 SW10      29.80R
GOSHEN         PTSUNNY   80  69  69 W8        29.81R
LOGANSPORT +   MOSUNNY   81  64  57 W13G23    29.85R
PERU/GRISSOM   PTSUNNY   80  73  77 W15       29.85R
ROCHESTER +    SUNNY     82  66  57 W9G18     29.84R
SOUTH BEND     SUNNY     82  66  58 SW13      29.80R
WARSAW +       MOSUNNY   81  68  65 W12       29.82R

$$

INZ006>009-017-018-025>027-020000-
NORTHEAST INDIANA

CITY           SKY/WX    TMP DP  RH WIND       PRES   REMARKS
ANGOLA *+      CLOUDY    81  73  78 SW8       29.81R
AUBURN +       MOSUNNY   81  68  65 SW6G20    29.83R
FORT WAYNE     PTSUNNY   79  71  76 SW14G22   29.84S
HUNTINGTON +   PTSUNNY   79  71  77 W7        29.83S

$$

INZ028-029-035-036-043>045-051>053-020000-
WEST CENTRAL INDIANA

CITY           SKY/WX    TMP DP  RH WIND       PRES   REMARKS
GREENCASTLE +  PTSUNNY   79  68  69 SW6       29.89R
LAFAYETTE      PTSUNNY   79  65  62 W14       29.85R
TERRE HAUTE    PTSUNNY   80  65  59 SW12      29.89R

$$

INZ030>032-037>040-046>048-054>057-064-065-020000-
CENTRAL INDIANA

CITY           SKY/WX    TMP DP  RH WIND       PRES   REMARKS
CP ATTERBURY + PTSUNNY   81  70  69 SW7       29.91S
FRANKFORT +    PTSUNNY   81  69  66 SW15G21   29.88R
GREENWOOD *+   PTSUNNY   81  73  78 SW10      29.90
INDIANAPOLIS   PTSUNNY   80  69  69 SW18      29.87S
-EAGLE CREEK   MOSUNNY   80  68  66 SW10G23   29.87S
KOKOMO *+      PTSUNNY   81  70  69 W14       29.85R
MARION +       PTSUNNY   80  67  63 SW12G22   29.86R
MT COMFORT *+  MOSUNNY   81  70  69 SW12      29.89S
SHELBYVILLE    PTSUNNY   81  72  74 SW15G22   29.90S
ZIONSVILLE +   MOSUNNY   80  68  67 SW12G17   29.89R

$$

INZ033-034-041-042-049-050-058-059-020000-
EAST CENTRAL INDIANA

CITY           SKY/WX    TMP DP  RH WIND       PRES   REMARKS
MUNCIE         PTSUNNY   82  69  64 SW14G23   29.87S

$$

INZ060-061-067>069-081>083-085>088-020000-
SOUTHWEST INDIANA

CITY           SKY/WX    TMP DP  RH WIND       PRES   REMARKS
EVANSVILLE     PTSUNNY   83  72  69 SW14      29.94S
WASHINGTON +   PTSUNNY   82  72  72 SW9       29.92R

$$

INZ062-063-066-070>080-084-089>092-020000-
SOUTH CENTRAL AND SOUTHEAST INDIANA

CITY           SKY/WX    TMP DP  RH WIND       PRES   REMARKS
BLOOMINGTON    PTSUNNY   79  70  74 SW8       29.92S
NORTH VERNON + CLOUDY    81  72  74 SW9G16    29.94

$$



USA.gov is the U.S. government's official web portal to all federal, state and local government web resources and services.